Year,Month,Day,Hour,Minute,Value (Times are PST for temperature in C)
2021,04,11,00,00,5.80
2021,04,11,00,01,5.80
2021,04,11,00,02,5.80
2021,04,11,00,03,5.80
2021,04,11,00,04,5.90
2021,04,11,00,05,5.90
2021,04,11,00,06,5.80
2021,04,11,00,07,5.80
2021,04,11,00,08,5.80
2021,04,11,00,09,5.80
2021,04,11,07,29,4.10
2021,04,11,07,30,4.10
2021,04,11,07,31,4.10
2021,04,11,07,32,4.10
2021,04,11,07,33,4.10
2021,04,11,07,34,4.10
2021,04,11,07,35,4.10
2021,04,11,07,36,4.10
2021,04,11,07,37,4.10
2021,04,11,07,38,4.10
2021,04,11,07,39,4.10
2021,04,11,07,40,4.20
2021,04,11,07,41,4.20
2021,04,11,07,42,4.20
2021,04,11,07,43,4.20
2021,04,11,07,44,4.20
2021,04,11,07,45,4.30
2021,04,11,07,46,4.30
2021,04,11,07,47,4.30
2021,04,11,07,48,4.30
2021,04,11,07,49,4.30
2021,04,11,07,50,4.40
2021,04,11,07,51,4.40
2021,04,11,07,52,4.40
2021,04,11,07,53,4.40
2021,04,11,07,54,4.40
2021,04,11,07,55,4.40
2021,04,11,07,56,4.40
2021,04,11,07,57,4.40
2021,04,11,07,58,4.50
2021,04,11,07,59,4.50
2021,04,11,08,00,4.60
2021,04,11,08,01,4.70
2021,04,11,08,02,4.70
2021,04,11,08,03,4.80
2021,04,11,08,04,4.90
2021,04,11,08,05,4.90
2021,04,11,08,06,5.00
2021,04,11,08,07,5.10
2021,04,11,08,08,5.10
2021,04,11,08,09,5.20
2021,04,11,08,10,5.20
2021,04,11,08,11,5.20
2021,04,11,08,12,5.20
2021,04,11,08,13,5.20
2021,04,11,08,14,5.10
2021,04,11,08,15,5.10
2021,04,11,08,16,5.10
2021,04,11,08,17,5.00
2021,04,11,08,18,5.00
2021,04,11,08,19,5.00
2021,04,11,08,20,5.10
2021,04,11,08,21,5.10
2021,04,11,08,22,5.20
2021,04,11,08,23,5.20
2021,04,11,08,24,5.30
2021,04,11,08,25,5.30
2021,04,11,08,26,5.30
2021,04,11,08,27,5.40
2021,04,11,08,28,5.40
2021,04,11,08,29,5.40
2021,04,11,08,30,5.40
2021,04,11,08,31,5.40
2021,04,11,08,32,5.40
2021,04,11,08,33,5.50
2021,04,11,08,34,5.50
2021,04,11,08,35,5.60
2021,04,11,08,36,5.60
2021,04,11,08,37,5.60
2021,04,11,08,38,5.60
2021,04,11,08,39,5.60
2021,04,11,08,40,5.70
2021,04,11,08,41,5.80
2021,04,11,08,42,5.80
2021,04,11,08,43,5.80
2021,04,11,08,44,5.90
2021,04,11,08,45,5.90
2021,04,11,08,46,5.90
2021,04,11,08,47,5.90
2021,04,11,08,48,5.90
2021,04,11,08,49,6.00
2021,04,11,08,50,6.00
2021,04,11,08,51,6.00
2021,04,11,08,52,6.00
2021,04,11,08,53,6.00
2021,04,11,08,54,5.90
2021,04,11,08,55,5.90
2021,04,11,08,56,5.80
2021,04,11,08,57,5.70
2021,04,11,08,58,5.70
2021,04,11,08,59,5.70
2021,04,11,09,00,5.70
2021,04,11,09,01,5.60
2021,04,11,09,02,5.70
2021,04,11,09,03,5.70
2021,04,11,09,04,5.70
2021,04,11,09,05,5.70
2021,04,11,09,06,5.70
2021,04,11,09,07,5.80
2021,04,11,09,08,5.80
2021,04,11,09,09,5.90
2021,04,11,09,10,5.90
2021,04,11,09,11,5.90
2021,04,11,09,12,5.90
2021,04,11,09,13,5.90
2021,04,11,09,14,5.90
2021,04,11,09,15,5.80
2021,04,11,09,16,5.80
2021,04,11,09,17,5.70
2021,04,11,09,18,5.70
2021,04,11,09,19,5.70
2021,04,11,09,20,5.60
2021,04,11,09,21,5.50
2021,04,11,09,22,5.40
2021,04,11,09,23,5.40
2021,04,11,09,24,5.40
2021,04,11,09,25,5.40
2021,04,11,09,26,5.30
2021,04,11,09,27,5.40
2021,04,11,09,28,5.40
2021,04,11,09,29,5.40
2021,04,11,09,30,5.40
2021,04,11,09,31,5.40
2021,04,11,09,32,5.30
2021,04,11,09,33,5.30
2021,04,11,09,34,5.30
2021,04,11,09,35,5.40
2021,04,11,09,36,5.40
2021,04,11,09,37,5.40
2021,04,11,09,38,5.40
2021,04,11,09,39,5.40
2021,04,11,09,40,5.40
2021,04,11,09,41,5.40
2021,04,11,09,42,5.40
2021,04,11,09,43,5.40
2021,04,11,09,44,5.40
2021,04,11,09,45,5.40
2021,04,11,09,46,5.40
2021,04,11,09,47,5.40
2021,04,11,09,48,5.40
2021,04,11,09,49,5.40
2021,04,11,09,50,5.40
2021,04,11,09,51,5.40
2021,04,11,09,52,5.40
2021,04,11,09,53,5.40
2021,04,11,09,54,5.40
2021,04,11,09,55,5.40
2021,04,11,09,56,5.30
2021,04,11,09,57,5.40
2021,04,11,09,58,5.40
2021,04,11,09,59,5.40
2021,04,11,10,00,5.40
2021,04,11,10,01,5.40
2021,04,11,10,02,5.40
2021,04,11,10,03,5.50
2021,04,11,10,04,5.50
2021,04,11,10,05,5.50
2021,04,11,10,06,5.50
2021,04,11,10,07,5.50
2021,04,11,10,08,5.40
2021,04,11,10,09,5.50
2021,04,11,10,10,5.50
2021,04,11,10,11,5.50
2021,04,11,10,12,5.50
2021,04,11,10,13,5.60
2021,04,11,10,14,5.60
2021,04,11,10,15,5.60
2021,04,11,10,16,5.60
2021,04,11,10,17,5.60
2021,04,11,10,18,5.60
2021,04,11,10,19,5.60
2021,04,11,10,20,5.60
2021,04,11,10,21,5.60
2021,04,11,10,22,5.60
2021,04,11,10,23,5.60
2021,04,11,10,24,5.60
2021,04,11,10,25,5.60
2021,04,11,10,26,5.60
2021,04,11,10,27,5.60
2021,04,11,10,28,5.60
2021,04,11,10,29,5.60
2021,04,11,10,30,5.50
2021,04,11,10,31,5.50
2021,04,11,10,32,5.50
2021,04,11,10,33,5.50
2021,04,11,10,34,5.60
2021,04,11,10,35,5.60
2021,04,11,10,36,5.50
2021,04,11,10,37,5.50
2021,04,11,10,38,5.50
2021,04,11,10,39,5.50
2021,04,11,10,40,5.50
2021,04,11,10,41,5.50
2021,04,11,10,42,5.50
2021,04,11,10,43,5.50
2021,04,11,10,44,5.50
2021,04,11,10,45,5.50
2021,04,11,10,46,5.60
2021,04,11,10,47,5.60
2021,04,11,10,48,5.60
2021,04,11,10,49,5.60
2021,04,11,10,50,5.60
2021,04,11,10,51,5.60
2021,04,11,10,52,5.60
2021,04,11,10,53,5.60
2021,04,11,10,54,5.60
2021,04,11,10,55,5.60
2021,04,11,10,56,5.60
2021,04,11,10,57,5.60
2021,04,11,10,58,5.60
2021,04,11,10,59,5.60
2021,04,11,11,00,5.60
2021,04,11,11,01,5.60
2021,04,11,11,02,5.60
2021,04,11,11,03,5.60
2021,04,11,11,04,5.60
2021,04,11,11,05,5.60
2021,04,11,11,06,5.60
2021,04,11,11,07,5.60
2021,04,11,11,08,5.60
2021,04,11,11,09,5.60
2021,04,11,11,10,5.60
2021,04,11,11,11,5.60
2021,04,11,11,12,5.70
2021,04,11,11,13,5.60
2021,04,11,11,14,5.70
2021,04,11,11,15,5.70
2021,04,11,11,16,5.70
2021,04,11,11,17,5.70
2021,04,11,11,18,5.70
2021,04,11,11,19,5.70
2021,04,11,11,20,5.70
2021,04,11,11,21,5.70
2021,04,11,11,22,5.70
2021,04,11,11,23,5.70
2021,04,11,11,24,5.70
2021,04,11,11,25,5.70
2021,04,11,11,26,5.70
2021,04,11,11,27,5.70
2021,04,11,11,28,5.70
2021,04,11,11,29,5.70
2021,04,11,11,30,5.70
2021,04,11,11,31,5.70
2021,04,11,11,32,5.80
2021,04,11,11,33,5.80
2021,04,11,11,34,5.80
2021,04,11,11,35,5.80
2021,04,11,11,36,5.80
2021,04,11,11,37,5.80
2021,04,11,11,38,5.80
2021,04,11,11,39,5.80
2021,04,11,11,40,5.80
2021,04,11,11,41,5.80
2021,04,11,11,42,5.80
2021,04,11,11,43,5.80
2021,04,11,11,44,5.80
2021,04,11,11,45,5.80
2021,04,11,11,46,5.80
2021,04,11,11,47,5.80
2021,04,11,11,48,5.80
2021,04,11,11,49,5.80
2021,04,11,11,50,5.90
2021,04,11,11,51,5.80
2021,04,11,11,52,5.80
2021,04,11,11,53,5.80
2021,04,11,11,54,5.80
2021,04,11,11,55,5.80
2021,04,11,11,56,5.90
2021,04,11,11,57,5.90
2021,04,11,11,58,5.90
2021,04,11,11,59,5.90
2021,04,11,12,00,5.90
2021,04,11,12,01,5.90
2021,04,11,12,02,5.90
2021,04,11,12,03,6.00
2021,04,11,12,04,5.90
2021,04,11,12,05,6.00
2021,04,11,12,06,6.00
2021,04,11,12,07,6.00
2021,04,11,12,08,6.00
2021,04,11,12,09,6.00
2021,04,11,12,10,6.00
2021,04,11,12,11,6.00
2021,04,11,12,12,6.00
2021,04,11,12,13,6.00
2021,04,11,12,14,6.00
2021,04,11,12,15,6.10
2021,04,11,12,16,6.10
2021,04,11,12,17,6.10
2021,04,11,12,18,6.10
2021,04,11,12,19,6.10
2021,04,11,12,20,6.10
2021,04,11,12,21,6.10
2021,04,11,12,22,6.10
2021,04,11,12,23,6.10
2021,04,11,12,24,6.10
2021,04,11,12,25,6.10
2021,04,11,12,26,6.10
2021,04,11,12,27,6.10
2021,04,11,12,28,6.10
2021,04,11,12,29,6.10
2021,04,11,12,30,6.10
2021,04,11,12,31,6.10
2021,04,11,12,32,6.10
2021,04,11,12,33,6.10
2021,04,11,12,34,6.20
2021,04,11,12,35,6.20
2021,04,11,12,36,6.20
2021,04,11,12,37,6.20
2021,04,11,12,38,6.20
2021,04,11,12,39,6.20
2021,04,11,12,40,6.20
2021,04,11,12,41,6.20
2021,04,11,12,42,6.20
2021,04,11,12,43,6.20
2021,04,11,12,44,6.20
2021,04,11,12,45,6.20
2021,04,11,12,46,6.20
2021,04,11,12,47,6.20
2021,04,11,12,48,6.20
2021,04,11,12,49,6.20
2021,04,11,12,50,6.20
2021,04,11,12,51,6.30
2021,04,11,12,52,6.20
2021,04,11,12,53,6.20
2021,04,11,12,54,6.30
2021,04,11,12,55,6.30
2021,04,11,12,56,6.30
2021,04,11,12,57,6.30
2021,04,11,12,58,6.30
2021,04,11,12,59,6.30
2021,04,11,13,00,6.30
2021,04,11,13,01,6.30
2021,04,11,13,02,6.30
2021,04,11,13,03,6.30
2021,04,11,13,04,6.30
2021,04,11,13,05,6.30
2021,04,11,13,06,6.30
2021,04,11,13,07,6.30
2021,04,11,13,08,6.30
2021,04,11,13,09,6.30
2021,04,11,13,10,6.30
2021,04,11,13,11,6.30
2021,04,11,13,12,6.30
2021,04,11,13,13,6.30
2021,04,11,13,14,6.30
2021,04,11,13,15,6.30
2021,04,11,13,16,6.30
2021,04,11,13,17,6.30
2021,04,11,13,18,6.30
2021,04,11,13,19,6.30
2021,04,11,13,20,6.30
2021,04,11,13,21,6.40
2021,04,11,13,22,6.40
2021,04,11,13,23,6.40
2021,04,11,13,24,6.40
2021,04,11,13,25,6.40
2021,04,11,13,26,6.40
2021,04,11,13,27,6.40
2021,04,11,13,28,6.40
2021,04,11,13,29,6.40
2021,04,11,13,30,6.40
2021,04,11,13,31,6.40
2021,04,11,13,32,6.40
2021,04,11,13,33,6.50
2021,04,11,13,34,6.50
2021,04,11,13,35,6.50
2021,04,11,13,36,6.50
2021,04,11,13,37,6.50
2021,04,11,13,38,6.50
2021,04,11,13,39,6.50
2021,04,11,13,40,6.50
2021,04,11,13,41,6.50
2021,04,11,13,42,6.50
2021,04,11,13,43,6.50
2021,04,11,13,44,6.50
2021,04,11,13,45,6.50
2021,04,11,13,46,6.60
2021,04,11,13,47,6.60
2021,04,11,13,48,6.60
2021,04,11,13,49,6.60
2021,04,11,13,50,6.60
2021,04,11,13,51,6.60
2021,04,11,13,52,6.60
2021,04,11,13,53,6.60
2021,04,11,13,54,6.60
2021,04,11,13,55,6.60
2021,04,11,13,56,6.60
2021,04,11,13,57,6.70
2021,04,11,13,58,6.70
2021,04,11,13,59,6.60
2021,04,11,14,00,6.60
2021,04,11,14,01,6.60
2021,04,11,14,02,6.60
2021,04,11,14,03,6.60
2021,04,11,14,04,6.70
2021,04,11,14,05,6.80
2021,04,11,14,06,6.70
2021,04,11,14,07,6.70
2021,04,11,14,08,6.70
2021,04,11,14,09,6.70
2021,04,11,14,10,6.70
2021,04,11,14,11,6.70
2021,04,11,14,12,6.70
2021,04,11,14,13,6.70
2021,04,11,14,14,6.70
2021,04,11,14,15,6.70
2021,04,11,14,16,6.70
2021,04,11,14,17,6.80
2021,04,11,14,18,6.80
2021,04,11,14,19,6.80
2021,04,11,14,20,6.80
2021,04,11,14,21,6.80
2021,04,11,14,22,6.80
2021,04,11,14,23,6.80
2021,04,11,14,24,6.90
2021,04,11,14,25,6.80
2021,04,11,14,26,6.80
2021,04,11,14,27,6.80
2021,04,11,14,28,6.90
2021,04,11,14,29,6.80
2021,04,11,14,30,6.80
2021,04,11,14,31,6.80
2021,04,11,14,32,6.80
2021,04,11,14,33,6.90
2021,04,11,14,34,6.90
2021,04,11,14,35,6.90
2021,04,11,14,36,6.90
2021,04,11,14,37,6.90
2021,04,11,14,38,6.90
2021,04,11,14,39,6.90
2021,04,11,14,40,6.90
2021,04,11,14,41,7.00
2021,04,11,14,42,7.00
2021,04,11,14,43,7.10
2021,04,11,14,44,7.10
2021,04,11,14,45,7.00
2021,04,11,14,46,7.10
2021,04,11,14,47,7.10
2021,04,11,14,48,7.10
2021,04,11,14,49,7.00
2021,04,11,14,50,7.00
2021,04,11,14,51,7.10
2021,04,11,14,52,7.10
2021,04,11,14,53,7.10
2021,04,11,14,54,7.10
2021,04,11,14,55,7.10
2021,04,11,14,56,7.10
2021,04,11,14,57,7.20
2021,04,11,14,58,7.20
2021,04,11,14,59,7.30
2021,04,11,15,00,7.30
2021,04,11,15,01,7.30
2021,04,11,15,02,7.30
2021,04,11,15,03,7.30
2021,04,11,15,04,7.30
2021,04,11,15,05,7.30
2021,04,11,15,06,7.30
2021,04,11,15,07,7.30
2021,04,11,15,08,7.30
2021,04,11,15,09,7.30
2021,04,11,15,10,7.30
2021,04,11,15,11,7.30
2021,04,11,15,12,7.40
2021,04,11,15,13,7.30
2021,04,11,15,14,7.30
2021,04,11,15,15,7.30
2021,04,11,15,16,7.30
2021,04,11,15,17,7.30
2021,04,11,15,18,7.30
2021,04,11,15,19,7.30
2021,04,11,15,20,7.30
2021,04,11,15,21,7.30
2021,04,11,15,22,7.30
2021,04,11,15,23,7.30
2021,04,11,15,24,7.30
2021,04,11,15,25,7.30
2021,04,11,15,26,7.30
2021,04,11,15,27,7.30
2021,04,11,15,28,7.30
2021,04,11,15,29,7.30
2021,04,11,15,30,7.30
2021,04,11,15,31,7.30
2021,04,11,15,32,7.30
2021,04,11,15,33,7.30
2021,04,11,15,34,7.30
2021,04,11,15,35,7.30
2021,04,11,15,36,7.30
2021,04,11,15,37,7.30
2021,04,11,15,38,7.30
2021,04,11,15,39,7.30
2021,04,11,15,40,7.30
2021,04,11,15,41,7.30
2021,04,11,15,42,7.30
2021,04,11,15,43,7.30
2021,04,11,15,44,7.30
2021,04,11,15,45,7.30
2021,04,11,15,46,7.30
2021,04,11,15,47,7.30
2021,04,11,15,48,7.30
2021,04,11,15,49,7.30
2021,04,11,15,50,7.30
2021,04,11,15,51,7.30
2021,04,11,15,52,7.30
2021,04,11,15,53,7.30
2021,04,11,15,54,7.30
2021,04,11,15,55,7.30
2021,04,11,15,56,7.30
2021,04,11,15,57,7.40
2021,04,11,15,58,7.40
2021,04,11,15,59,7.40
2021,04,11,16,00,7.40
2021,04,11,16,01,7.30
2021,04,11,16,02,7.40
2021,04,11,16,03,7.40
2021,04,11,16,04,7.40
2021,04,11,16,05,7.40
2021,04,11,16,06,7.40
2021,04,11,16,07,7.40
2021,04,11,16,08,7.40
2021,04,11,16,09,7.40
2021,04,11,16,10,7.40
2021,04,11,16,11,7.40
2021,04,11,16,12,7.50
2021,04,11,16,13,7.50
2021,04,11,16,14,7.60
2021,04,11,16,15,7.60
2021,04,11,16,16,7.60
2021,04,11,16,17,7.70
2021,04,11,16,18,7.70
2021,04,11,16,19,7.70
2021,04,11,16,20,7.80
2021,04,11,16,21,7.80
2021,04,11,16,22,7.80
2021,04,11,16,23,7.80
2021,04,11,16,24,7.80
2021,04,11,16,25,7.80
2021,04,11,16,26,7.80
2021,04,11,16,27,7.80
2021,04,11,16,28,7.80
2021,04,11,16,29,7.80
2021,04,11,16,30,7.80
2021,04,11,16,31,7.80
2021,04,11,16,32,7.80
2021,04,11,16,33,7.80
2021,04,11,16,34,7.80
2021,04,11,16,35,7.80
2021,04,11,16,36,7.80
2021,04,11,16,37,7.80
2021,04,11,16,38,7.80
2021,04,11,16,39,7.80
2021,04,11,16,40,7.80
2021,04,11,16,41,7.80
2021,04,11,16,42,7.80
2021,04,11,16,43,7.80
2021,04,11,16,44,7.80
2021,04,11,16,45,7.90
2021,04,11,16,46,7.90
2021,04,11,16,47,7.90
2021,04,11,16,48,7.90
2021,04,11,16,49,7.90
2021,04,11,16,50,7.90
2021,04,11,16,51,7.90
2021,04,11,16,52,7.90
2021,04,11,16,53,8.00
2021,04,11,16,54,8.00
2021,04,11,16,55,8.00
2021,04,11,16,56,8.00
2021,04,11,16,57,8.00
2021,04,11,16,58,8.00
2021,04,11,16,59,8.00
2021,04,11,17,00,8.10
2021,04,11,17,01,8.10
2021,04,11,17,02,8.10
2021,04,11,17,03,8.10
2021,04,11,17,04,8.10
2021,04,11,17,05,8.10
2021,04,11,17,06,8.10
2021,04,11,17,07,8.00
2021,04,11,17,08,8.00
2021,04,11,17,09,8.00
2021,04,11,17,10,8.00
2021,04,11,17,11,8.00
2021,04,11,17,12,8.00
2021,04,11,17,13,8.00
2021,04,11,17,14,8.00
2021,04,11,17,15,8.00
2021,04,11,17,16,8.00
2021,04,11,17,17,8.00
2021,04,11,17,18,8.00
2021,04,11,17,19,8.00
2021,04,11,17,20,8.00
2021,04,11,17,21,8.00
2021,04,11,17,22,8.00
2021,04,11,17,23,8.00
2021,04,11,17,24,8.10
2021,04,11,17,25,8.10
2021,04,11,17,26,8.10
2021,04,11,17,27,8.10
2021,04,11,17,28,8.10
2021,04,11,17,29,8.10
2021,04,11,17,30,8.10
2021,04,11,17,31,8.10
2021,04,11,17,32,8.10
2021,04,11,17,33,8.10
2021,04,11,17,34,8.10
2021,04,11,17,35,8.00
2021,04,11,17,36,8.00
2021,04,11,17,37,8.00
2021,04,11,17,38,8.00
2021,04,11,17,39,8.00
2021,04,11,17,40,8.10
2021,04,11,17,41,8.10
2021,04,11,17,42,8.10
2021,04,11,17,43,8.10
2021,04,11,17,44,8.10
2021,04,11,17,45,8.10
2021,04,11,17,46,8.10
2021,04,11,17,47,8.20
2021,04,11,17,48,8.20
2021,04,11,17,49,8.20
2021,04,11,17,50,8.20
2021,04,11,17,51,8.20
2021,04,11,17,52,8.10
2021,04,11,17,53,8.10
2021,04,11,17,54,8.10
2021,04,11,17,55,8.10
2021,04,11,17,56,8.10
2021,04,11,17,57,8.10
2021,04,11,17,58,8.10
2021,04,11,17,59,8.10
2021,04,11,18,00,8.10
2021,04,11,18,01,8.20
2021,04,11,18,02,8.20
2021,04,11,18,03,8.20
2021,04,11,18,04,8.20
2021,04,11,18,05,8.20
2021,04,11,18,06,8.20
2021,04,11,18,07,8.20
2021,04,11,18,08,8.20
2021,04,11,18,09,8.20
2021,04,11,18,10,8.20
2021,04,11,18,11,8.20
2021,04,11,18,12,8.20
2021,04,11,18,13,8.20
2021,04,11,18,14,8.30
2021,04,11,18,15,8.30
2021,04,11,18,16,8.30
2021,04,11,18,17,8.30
2021,04,11,18,18,8.30
2021,04,11,18,19,8.30
2021,04,11,18,20,8.30
2021,04,11,18,21,8.20
2021,04,11,18,22,8.20
2021,04,11,18,23,8.20
2021,04,11,18,24,8.20
2021,04,11,18,25,8.20
2021,04,11,18,26,8.20
2021,04,11,18,27,8.20
2021,04,11,18,28,8.20
2021,04,11,18,29,8.20
2021,04,11,18,30,8.20
2021,04,11,18,31,8.20
2021,04,11,18,32,8.20
2021,04,11,18,33,8.20
2021,04,11,18,34,8.20
2021,04,11,18,35,8.20
2021,04,11,18,36,8.20
2021,04,11,18,37,8.20
2021,04,11,18,38,8.20
2021,04,11,18,39,8.20
2021,04,11,18,40,8.20
2021,04,11,18,41,8.20
2021,04,11,18,42,8.20
2021,04,11,18,43,8.20
2021,04,11,18,44,8.20
2021,04,11,18,45,8.20
2021,04,11,18,46,8.20
2021,04,11,18,47,8.20
2021,04,11,18,48,8.20
2021,04,11,18,49,8.20
2021,04,11,18,50,8.20
2021,04,11,18,51,8.20
2021,04,11,18,52,8.10
2021,04,11,18,53,8.10
2021,04,11,18,54,8.10
2021,04,11,18,55,8.10
2021,04,11,18,56,8.10
2021,04,11,18,57,8.10
2021,04,11,18,58,8.10
2021,04,11,18,59,8.10
2021,04,11,19,00,8.10
2021,04,11,19,01,8.10
2021,04,11,19,02,8.10
2021,04,11,19,03,8.10
2021,04,11,19,04,8.10
2021,04,11,19,05,8.10
2021,04,11,19,06,8.10
2021,04,11,19,07,8.10
2021,04,11,19,08,8.00
2021,04,11,19,09,8.00
2021,04,11,19,10,8.10
2021,04,11,19,11,8.00
2021,04,11,19,12,8.10
2021,04,11,19,13,8.10
2021,04,11,19,14,8.10
2021,04,11,19,15,8.10
2021,04,11,19,16,8.10
2021,04,11,19,17,8.10
2021,04,11,19,18,8.10
2021,04,11,19,19,8.10
2021,04,11,19,20,8.10
2021,04,11,19,21,8.10
2021,04,11,19,22,8.10
2021,04,11,19,23,8.10
2021,04,11,19,24,8.10
2021,04,11,19,25,8.10
2021,04,11,19,26,8.00
2021,04,11,19,27,8.00
2021,04,11,19,28,8.00
2021,04,11,19,29,8.00
2021,04,11,19,30,8.00
2021,04,11,19,31,8.00
2021,04,11,19,32,8.00
2021,04,11,19,33,8.00
2021,04,11,19,34,8.00
2021,04,11,19,35,8.00
2021,04,11,19,36,8.00
2021,04,11,19,37,8.00
2021,04,11,19,38,8.00
2021,04,11,19,39,7.90
2021,04,11,19,40,7.90
2021,04,11,19,41,7.90
2021,04,11,19,42,7.90
2021,04,11,19,43,7.90
2021,04,11,19,44,7.90
2021,04,11,19,45,7.90
2021,04,11,19,46,7.90
2021,04,11,19,47,7.80
2021,04,11,19,48,7.80
2021,04,11,19,49,7.80
2021,04,11,19,50,7.80
2021,04,11,19,51,7.80
2021,04,11,19,52,7.80
2021,04,11,19,53,7.80
2021,04,11,19,54,7.80
2021,04,11,19,55,7.80
2021,04,11,19,56,7.70
2021,04,11,19,57,7.70
2021,04,11,19,58,7.70
2021,04,11,19,59,7.70
2021,04,11,20,00,7.70
2021,04,11,20,01,7.70
2021,04,11,20,02,7.70
2021,04,11,20,03,7.70
2021,04,11,20,04,7.70
2021,04,11,20,05,7.70
2021,04,11,20,06,7.70
2021,04,11,20,07,7.70
2021,04,11,20,08,7.70
2021,04,11,20,09,7.70
2021,04,11,20,10,7.70
2021,04,11,20,11,7.60
2021,04,11,20,12,7.60
2021,04,11,20,13,7.60
2021,04,11,20,14,7.60
2021,04,11,20,15,7.60
2021,04,11,20,16,7.60
2021,04,11,20,17,7.60
2021,04,11,20,18,7.60
2021,04,11,20,19,7.60
2021,04,11,20,20,7.60
2021,04,11,20,21,7.70
2021,04,11,20,22,7.70
2021,04,11,20,23,7.60
2021,04,11,20,24,7.70
2021,04,11,20,25,7.60
2021,04,11,20,26,7.70
2021,04,11,20,27,7.70
2021,04,11,20,28,7.70
2021,04,11,20,29,7.70
2021,04,11,20,30,7.70
2021,04,11,20,31,7.70
2021,04,11,20,32,7.70
2021,04,11,20,33,7.70
2021,04,11,20,34,7.70
2021,04,11,20,35,7.70
2021,04,11,20,36,7.70
2021,04,11,20,37,7.70
2021,04,11,20,38,7.70
2021,04,11,20,39,7.70
2021,04,11,20,40,7.70
2021,04,11,20,41,7.70
2021,04,11,20,42,7.70
2021,04,11,20,43,7.70
2021,04,11,20,44,7.70
2021,04,11,20,45,7.70
2021,04,11,20,46,7.70
2021,04,11,20,47,7.70
2021,04,11,20,48,7.70
2021,04,11,20,49,7.70
2021,04,11,20,50,7.70
2021,04,11,20,51,7.60
2021,04,11,20,52,7.60
2021,04,11,20,53,7.70
2021,04,11,20,54,7.70
2021,04,11,20,55,7.70
2021,04,11,20,56,7.60
2021,04,11,20,57,7.60
2021,04,11,20,58,7.60
2021,04,11,20,59,7.60
2021,04,11,21,00,7.60
2021,04,11,21,01,7.60
2021,04,11,21,02,7.60
2021,04,11,21,03,7.60
2021,04,11,21,04,7.60
2021,04,11,21,05,7.60
2021,04,11,21,06,7.60
2021,04,11,21,07,7.50
2021,04,11,21,08,7.50
2021,04,11,21,09,7.50
2021,04,11,21,10,7.40
2021,04,11,21,11,7.40
2021,04,11,21,12,7.40
2021,04,11,21,13,7.40
2021,04,11,21,14,7.40
2021,04,11,21,15,7.40
2021,04,11,21,16,7.40
2021,04,11,21,17,7.40
2021,04,11,21,18,7.30
2021,04,11,21,19,7.30
2021,04,11,21,20,7.30
2021,04,11,21,21,7.30
2021,04,11,21,22,7.30
2021,04,11,21,23,7.30
2021,04,11,21,24,7.30
2021,04,11,21,25,7.30
2021,04,11,21,26,7.20
2021,04,11,21,27,7.20
2021,04,11,21,28,7.20
2021,04,11,21,29,7.20
2021,04,11,21,30,7.20
2021,04,11,21,31,7.10
2021,04,11,21,32,7.10
2021,04,11,21,33,7.10
2021,04,11,21,34,7.20
2021,04,11,21,35,7.20
2021,04,11,21,36,7.20
2021,04,11,21,37,7.20
2021,04,11,21,38,7.20
2021,04,11,21,39,7.20
2021,04,11,21,40,7.20
2021,04,11,21,41,7.20
2021,04,11,21,42,7.30
2021,04,11,21,43,7.30
2021,04,11,21,44,7.30
2021,04,11,21,45,7.30
2021,04,11,21,46,7.30
2021,04,11,21,47,7.20
2021,04,11,21,48,7.20
2021,04,11,21,49,7.20
2021,04,11,21,50,7.20
2021,04,11,21,51,7.20
2021,04,11,21,52,7.20
2021,04,11,21,53,7.20
2021,04,11,21,54,7.20
2021,04,11,21,55,7.20
2021,04,11,21,56,7.20
2021,04,11,21,57,7.20
2021,04,11,21,58,7.20
2021,04,11,21,59,7.10
2021,04,11,22,00,7.10
2021,04,11,22,01,7.10
2021,04,11,22,02,7.10
2021,04,11,22,03,7.10
2021,04,11,22,04,7.10
2021,04,11,22,05,7.10
2021,04,11,22,06,7.10
2021,04,11,22,07,7.10
2021,04,11,22,08,7.10
2021,04,11,22,09,7.10
2021,04,11,22,10,7.10
2021,04,11,22,11,7.10
2021,04,11,22,12,7.10
2021,04,11,22,13,7.10
2021,04,11,22,14,7.00
2021,04,11,22,15,7.00
2021,04,11,22,16,7.00
2021,04,11,22,17,7.00
2021,04,11,22,18,7.00
2021,04,11,22,19,7.00
2021,04,11,22,20,7.10
2021,04,11,22,21,7.10
2021,04,11,22,22,7.00
2021,04,11,22,23,7.00
2021,04,11,22,24,7.10
2021,04,11,22,25,7.10
2021,04,11,22,26,7.10
2021,04,11,22,27,7.10
2021,04,11,22,28,7.10
2021,04,11,22,29,7.10
2021,04,11,22,30,7.10
2021,04,11,22,31,7.10
2021,04,11,22,32,7.10
2021,04,11,22,33,7.10
2021,04,11,22,34,7.10
2021,04,11,22,35,7.10
2021,04,11,22,36,7.10
2021,04,11,22,37,7.10
2021,04,11,22,38,7.00
2021,04,11,22,39,7.00
2021,04,11,22,40,6.90
2021,04,11,22,41,6.90
2021,04,11,22,42,6.90
2021,04,11,22,43,6.80
2021,04,11,22,44,6.80
2021,04,11,22,45,6.80
2021,04,11,22,46,6.80
2021,04,11,22,47,6.80
2021,04,11,22,48,6.80
2021,04,11,22,49,6.70
2021,04,11,22,50,6.70
2021,04,11,22,51,6.70
2021,04,11,22,52,6.60
2021,04,11,22,53,6.60
2021,04,11,22,54,6.60
2021,04,11,22,55,6.60
2021,04,11,22,56,6.50
2021,04,11,22,57,6.50
2021,04,11,22,58,6.40
2021,04,11,22,59,6.40
2021,04,11,23,00,6.30
2021,04,11,23,01,6.30
2021,04,11,23,02,6.30
2021,04,11,23,03,6.30
2021,04,11,23,04,6.30
2021,04,11,23,05,6.30
2021,04,11,23,06,6.30
2021,04,11,23,07,6.30
2021,04,11,23,08,6.30
2021,04,11,23,09,6.30
2021,04,11,23,10,6.30
2021,04,11,23,11,6.30
2021,04,11,23,12,6.30
2021,04,11,23,13,6.20
2021,04,11,23,14,6.20
2021,04,11,23,15,6.20
2021,04,11,23,16,6.20
2021,04,11,23,17,6.20
2021,04,11,23,18,6.20
2021,04,11,23,19,6.20
2021,04,11,23,20,6.30
2021,04,11,23,21,6.30
2021,04,11,23,22,6.30
2021,04,11,23,23,6.30
2021,04,11,23,24,6.40
2021,04,11,23,25,6.40
2021,04,11,23,26,6.40
2021,04,11,23,27,6.40
2021,04,11,23,28,6.40
2021,04,11,23,29,6.40
2021,04,11,23,30,6.40
2021,04,11,23,31,6.40
2021,04,11,23,32,6.50
2021,04,11,23,33,6.50
2021,04,11,23,34,6.50
2021,04,11,23,35,6.50
2021,04,11,23,36,6.50
2021,04,11,23,37,6.50
2021,04,11,23,38,6.40
2021,04,11,23,39,6.40
2021,04,11,23,40,6.40
2021,04,11,23,41,6.40
2021,04,11,23,42,6.40
2021,04,11,23,43,6.40
2021,04,11,23,44,6.40
2021,04,11,23,45,6.40
2021,04,11,23,46,6.40
2021,04,11,23,47,6.40
2021,04,11,23,48,6.30
2021,04,11,23,49,6.30
2021,04,11,23,50,6.30
2021,04,11,23,51,6.30
2021,04,11,23,52,6.30
2021,04,11,23,53,6.20
2021,04,11,23,54,6.20
2021,04,11,23,55,6.20
2021,04,11,23,56,6.20
2021,04,11,23,57,6.20
2021,04,11,23,58,6.10
2021,04,11,23,59,6.10
